Miscellaneous Local Product
Issued by NWS Hastings, NE

Home | Current Version | Previous Version | Text Only | Print | Product List | Glossary Off
Versions: 1 2 3 4 5 6 7 8 9 10 11 12 13 14 15 16 17 18 19 20 21 22 23 24 25 26 27 28 29 30 31 32 33 34 35 36 37 38 39 40 41 42 43 44 45 46 47 48 49 50

000
AXUS43 KGID 210802
MISGRI

GID CWA HOURLY WEATHER ROUNDUP
NATIONAL WEATHER SERVICE HASTINGS NE
300 AM CDT MON APR 21 2014

NOTE: "FAIR" INDICATES FEW OR NO CLOUDS BELOW 12,000 FEET WITH NO
SIGNIFICANT WEATHER AND/OR OBSTRUCTIONS TO VISIBILITY.

...SOUTH CENTRAL NEBRASKA...

CITY           SKY/WX    TMP DP  RH WIND       PRES   REMARKS
GRAND ISLAND   LGT RAIN  60  55  83 SW6       29.99F
HASTINGS       CLOUDY    59  53  80 N14       30.01R
KEARNEY        CLOUDY    59  54  82 N9        30.03R
ORD            CLOUDY    55  52  89 CALM      29.96F
YORK           CLOUDY    57  55  94 W10       29.99R
AURORA         RAIN      58  55  88 NW9       29.99F
LEXINGTON      CLOUDY    59  55  84 N9        30.00R
HOLDREGE       CLOUDY    56  53  91 N7        30.00R
HEBRON         LGT RAIN  59  56  88 CALM      29.96S

...NEBRASKA PANHANDLE...

CITY           SKY/WX    TMP DP  RH WIND       PRES   REMARKS
CHADRON        CLEAR     40  32  73 N5        30.19R
ALLIANCE       CLEAR     42  30  62 N8        30.16R
SCOTTSBLUFF    PTCLDY    50  27  40 VRB5      30.20R
SIDNEY         MOCLDY    47  31  53 N13       30.17R

...WESTERN AND NORTH CENTRAL NEBRASKA...

CITY           SKY/WX    TMP DP  RH WIND       PRES   REMARKS
VALENTINE      PTCLDY    52  28  39 N10       30.09R
AINSWORTH      PTCLDY    55  32  42 N14       30.07R
ONEILL         CLOUDY    55  46  70 NW8       29.99R
BROKEN BOW     MOCLDY    55  52  89 NW12      30.00R
IMPERIAL       CLEAR     55  38  52 N16       30.06R
NORTH PLATTE   PTCLDY    55  38  52 N17       30.04R
MCCOOK         PTCLDY    53  51  93 NW6       30.02R

...EASTERN NEBRASKA...

CITY           SKY/WX    TMP DP  RH WIND       PRES   REMARKS
NORFOLK        CLOUDY    58  52  80 S10       29.87F
SO SIOUX CITY  CLOUDY    62  55  77 S8        29.90F
TEKAMAH        CLOUDY    61  54  77 SW9       29.93F
COLUMBUS       CLOUDY    61  54  77 SW14      29.95F
ALBION         DRIZZLE   65  46  49 W13G21    29.90F
OMAHA EPPLEY   CLOUDY    63  57  81 SE7       29.94F
OFFUTT AFB     LGT RAIN  60  60 100 E6        29.94F
MILLARD        CLOUDY    63  56  77 CALM      29.93F
LINCOLN        CLOUDY    61  55  81 CALM      29.95F
NEBRASKA CITY  MOCLDY    61  57  87 S8        29.95F
BEATRICE       CLOUDY    61  55  82 S6        29.95S
FALLS CITY     LGT RAIN  64  57  78 S12       29.95F

...NORTHERN KANSAS...

CITY           SKY/WX    TMP DP  RH WIND       PRES   REMARKS
GOODLAND       CLEAR     46  42  86 W7        30.04R
HILL CITY      CLOUDY    58  55  90 W10       29.97F
SMITH CENTER   MOCLDY    54  54 100 SW7       29.96S
BELOIT         MOCLDY    61  57  88 S8        29.91F
HAYS           CLOUDY    57  54  88 N3        29.96F
RUSSELL        MOCLDY    56  52  86 W8        29.94F
CONCORDIA      CLOUDY    61  56  83 S8        29.94F
SALINA         CLOUDY    55  50  83 S7        29.96F
TOPEKA         CLOUDY    65  56  72 SW5       29.98F



USA.gov is the U.S. government's official web portal to all federal, state and local government web resources and services.